Weather History for Salida, CO

Change the Weather History Date:

Monday, January 28, 2013

  Actual Average (KGUC) Record (KGUC)
Temperature  
Mean Temperature 35 °F -  
Max Temperature 46 °F 23 °F 39 °F (2003)
Min Temperature 23 °F 0 °F -16 °F (2012)
Degree Days  
Heating Degree Days 30    
Moisture  
Dew Point 23 °F    
Average Humidity 63    
Maximum Humidity 81    
Minimum Humidity 46    
Precipitation  
Precipitation 0.00 in - - ()
Sea Level Pressure  
Sea Level Pressure 29.77 in    
Wind  
Wind Speed 10 mph (SW)    
Max Wind Speed 21 mph    
Max Gust Speed 33 mph    
Visibility 10 miles    
Events      
Averages and records for this station are not official NWS values.
T = Trace of Precipitation, MM = Missing Value Source: NWS Daily Summary

Daily Weather History Graph

Daily Weather History Graph

Search for Another Location

Airport:

Trip Planner

Search our weather history database for the weather conditions in past years. The results will help you decide how hot, cold, wet, or windy it might be!

Date:

Astronomy

Jan. 28, 2013 Rise Set
Actual Time 7:12 AM MST 5:22 PM MST
Civil Twilight 6:44 AM MST 5:50 PM MST
Nautical Twilight 6:12 AM MST 6:22 PM MST
Astronomical Twilight 5:41 AM MST 6:53 PM MST
Moon 7:17 PM MST (1/28) 7:41 AM MST (1/28)
Length of Visible Light 11h 05m
Length of Day
10h 09m
Full, 97% of the Moon is Illuminated
Jan 28
Full
Feb 3
Last Quarter
Feb 10
New
Feb 17
First Quarter
Feb 25
Full

Hourly Weather History & Observations

Time (MST) Temp. Windchill Dew Point Humidity Pressure Visibility Wind Dir Wind Speed Gust Speed Precip Events Conditions
12:15 AM 37.2 °F 30.6 °F 22.1 °F 54% 29.92 in 10.0 mi SSW 9.2 mph - N/A   Overcast
12:35 AM 37.4 °F 32.1 °F 23.0 °F 56% 29.91 in 10.0 mi SW 6.9 mph - N/A   Overcast
12:55 AM 37.6 °F 29.6 °F 24.8 °F 60% 29.90 in 10.0 mi South 12.7 mph 16.1 mph N/A   Overcast
1:15 AM 38.3 °F 33.2 °F 26.2 °F 62% 29.88 in 10.0 mi SSW 6.9 mph - N/A   Overcast
1:35 AM 36.5 °F 31.8 °F 26.1 °F 66% 29.88 in 10.0 mi WSW 5.8 mph - N/A   Overcast
1:55 AM 37.8 °F 34.2 °F 26.8 °F 65% 29.88 in 10.0 mi WSW 4.6 mph - N/A   Overcast
2:15 AM 38.5 °F 33.4 °F 27.7 °F 65% 29.88 in 10.0 mi South 6.9 mph - N/A   Overcast
2:35 AM 38.3 °F 31.9 °F 28.4 °F 68% 29.87 in 10.0 mi South 9.2 mph - N/A   Overcast
2:55 AM 38.7 °F 35.2 °F 28.4 °F 67% 29.87 in 10.0 mi South 4.6 mph - N/A   Overcast
3:15 AM 38.3 °F 31.9 °F 28.8 °F 69% 29.86 in 10.0 mi South 9.2 mph - N/A   Overcast
3:35 AM 38.3 °F 31.9 °F 28.0 °F 67% 29.85 in 10.0 mi South 9.2 mph - N/A   Overcast
3:55 AM 38.3 °F 32.5 °F 27.7 °F 66% 29.84 in 10.0 mi South 8.1 mph - N/A   Overcast
4:15 AM 38.3 °F 34.8 °F 27.3 °F 65% 29.83 in 10.0 mi SSE 4.6 mph - N/A   Overcast
4:35 AM 37.8 °F 32.5 °F 27.3 °F 66% 29.83 in 10.0 mi SSE 6.9 mph - N/A   Overcast
4:55 AM 37.6 °F 30.0 °F 27.1 °F 66% 29.82 in 10.0 mi South 11.5 mph 19.6 mph N/A   Overcast
5:15 AM 37.8 °F 29.4 °F 26.6 °F 64% 29.80 in 10.0 mi South 13.8 mph 25.3 mph N/A   Overcast
5:35 AM 37.8 °F 32.5 °F 27.1 °F 66% 29.80 in 10.0 mi SSE 6.9 mph 23.0 mph N/A   Overcast
5:55 AM 37.6 °F 29.6 °F 27.1 °F 66% 29.78 in 10.0 mi SSE 12.7 mph 23.0 mph N/A   Overcast
6:15 AM 37.8 °F 31.3 °F 27.7 °F 67% 29.78 in 10.0 mi SSE 9.2 mph 24.2 mph N/A   Overcast
6:35 AM 37.4 °F 30.3 °F 28.0 °F 69% 29.78 in 10.0 mi South 10.4 mph 18.4 mph N/A   Mostly Cloudy
6:55 AM 37.6 °F 32.3 °F 28.9 °F 71% 29.77 in 10.0 mi SSE 6.9 mph 25.3 mph N/A   Overcast
7:15 AM 37.6 °F 28.1 °F 28.2 °F 69% 29.76 in 10.0 mi South 17.3 mph 24.2 mph N/A   Mostly Cloudy
7:35 AM 37.8 °F 29.4 °F 28.4 °F 69% 29.77 in 10.0 mi South 13.8 mph 25.3 mph N/A   Scattered Clouds
7:55 AM 37.4 °F 27.2 °F 29.3 °F 73% 29.77 in 10.0 mi South 19.6 mph 27.6 mph N/A   Scattered Clouds
8:15 AM 38.3 °F 29.7 °F 29.1 °F 70% 29.77 in 10.0 mi South 15.0 mph 25.3 mph N/A   Mostly Cloudy
8:35 AM 38.8 °F 33.2 °F 28.4 °F 66% 29.78 in 10.0 mi WSW 8.1 mph 23.0 mph N/A   Mostly Cloudy
8:55 AM 36.5 °F 28.7 °F 31.1 °F 81% 29.78 in 3.0 mi West 11.5 mph 17.3 mph N/A   Overcast
9:15 AM 37.8 °F 34.2 °F 30.9 °F 76% 29.76 in 10.0 mi NW 4.6 mph - N/A   Mostly Cloudy
9:35 AM 40.6 °F 33.4 °F 28.8 °F 63% 29.76 in 10.0 mi South 12.7 mph 19.6 mph N/A   Scattered Clouds
10:15 AM 41.9 °F 34.0 °F 27.3 °F 56% 29.74 in 10.0 mi South 16.1 mph 21.9 mph N/A   Mostly Cloudy
10:35 AM 43.5 °F 36.7 °F 26.8 °F 52% 29.73 in 10.0 mi South 13.8 mph 23.0 mph N/A   Mostly Cloudy
10:55 AM 41.7 °F 33.1 °F 28.0 °F 58% 29.74 in 10.0 mi South 18.4 mph 28.8 mph N/A   Mostly Cloudy
11:15 AM 41.0 °F 33.9 °F 29.1 °F 63% 29.76 in 10.0 mi South 12.7 mph 20.7 mph N/A   Overcast
11:35 AM 39.7 °F 31.9 °F 31.3 °F 72% 29.75 in 7.0 mi WSW 13.8 mph 23.0 mph N/A   Overcast
11:55 AM 41.0 °F 37.1 °F 30.0 °F 65% 29.73 in 10.0 mi NNW 5.8 mph - N/A   Overcast
12:15 PM 42.4 °F 34.4 °F 27.3 °F 55% 29.71 in 10.0 mi SSW 17.3 mph 21.9 mph N/A   Overcast
12:35 PM 42.8 °F 38.0 °F 29.8 °F 60% 29.68 in 10.0 mi South 8.1 mph - N/A   Scattered Clouds
12:55 PM 46.0 °F 39.9 °F 26.4 °F 46% 29.67 in 10.0 mi South 13.8 mph 19.6 mph N/A   Scattered Clouds
1:15 PM 43.3 °F 37.2 °F 25.7 °F 50% 29.68 in 10.0 mi West 11.5 mph 21.9 mph N/A   Mostly Cloudy
1:35 PM 35.6 °F 24.8 °F 28.8 °F 76% 29.70 in 2.5 mi West 19.6 mph 29.9 mph N/A   Overcast
1:55 PM 36.7 °F 27.2 °F 26.4 °F 66% 29.70 in 10.0 mi WSW 16.1 mph 26.5 mph N/A   Overcast
2:15 PM 34.9 °F 23.6 °F 25.3 °F 68% 29.72 in 10.0 mi WSW 20.7 mph 33.4 mph N/A   Overcast
2:35 PM 34.9 °F 24.2 °F 24.3 °F 65% 29.73 in 10.0 mi WSW 18.4 mph 25.3 mph N/A   Overcast
2:55 PM 35.6 °F 25.2 °F 23.7 °F 62% 29.74 in 10.0 mi WSW 18.4 mph 26.5 mph N/A   Overcast
3:15 PM 35.1 °F 24.5 °F 23.0 °F 61% 29.73 in 10.0 mi SW 18.4 mph 24.2 mph N/A   Mostly Cloudy
3:35 PM 36.0 °F 27.5 °F 21.4 °F 55% 29.73 in 10.0 mi WSW 12.7 mph 18.4 mph N/A   Overcast
3:55 PM 36.9 °F 26.2 °F 19.6 °F 50% 29.73 in 10.0 mi WSW 20.7 mph 26.5 mph N/A   Overcast
4:15 PM 34.7 °F 25.5 °F 22.8 °F 62% 29.73 in 10.0 mi West 13.8 mph 18.4 mph N/A   Overcast
4:35 PM 33.8 °F 24.8 °F 23.5 °F 66% 29.74 in 10.0 mi West 12.7 mph - N/A   Overcast
4:55 PM 33.8 °F 23.2 °F 21.0 °F 60% 29.77 in 10.0 mi WSW 17.3 mph 25.3 mph N/A   Overcast
5:15 PM 31.6 °F 24.4 °F 25.7 °F 79% 29.76 in 2.5 mi SSW 8.1 mph - N/A   Overcast
5:35 PM 30.7 °F 22.6 °F 23.7 °F 75% 29.75 in 10.0 mi WSW 9.2 mph - N/A   Scattered Clouds
5:55 PM 30.6 °F 21.2 °F 21.9 °F 70% 29.75 in 10.0 mi SW 11.5 mph 17.3 mph N/A   Mostly Cloudy
6:15 PM 30.9 °F 22.8 °F 21.2 °F 67% 29.77 in 10.0 mi West 9.2 mph - N/A   Mostly Cloudy
6:35 PM 30.7 °F 22.0 °F 18.0 °F 59% 29.77 in 10.0 mi SW 10.4 mph 16.1 mph N/A   Mostly Cloudy
6:55 PM 30.4 °F 22.2 °F 15.1 °F 53% 29.77 in 10.0 mi WSW 9.2 mph 18.4 mph N/A   Scattered Clouds
7:15 PM 29.1 °F 23.0 °F 15.3 °F 56% 29.77 in 10.0 mi WSW 5.8 mph - N/A   Clear
7:35 PM 28.8 °F 22.6 °F 15.3 °F 57% 29.77 in 10.0 mi WSW 5.8 mph - N/A   Clear
7:55 PM 28.9 °F 21.9 °F 14.7 °F 55% 29.78 in 10.0 mi SSW 6.9 mph - N/A   Clear
8:15 PM 27.9 °F 22.6 °F 15.1 °F 59% 29.77 in 10.0 mi South 4.6 mph - N/A   Clear
8:35 PM 28.4 °F 19.7 °F 14.4 °F 56% 29.77 in 10.0 mi SSW 9.2 mph - N/A   Clear
8:55 PM 28.0 °F 20.8 °F 14.0 °F 56% 29.76 in 10.0 mi WSW 6.9 mph - N/A   Clear
9:15 PM 27.9 °F 20.6 °F 14.0 °F 56% 29.75 in 10.0 mi WSW 6.9 mph - N/A   Clear
9:35 PM 27.1 °F 18.2 °F 14.0 °F 58% 29.75 in 10.0 mi West 9.2 mph - N/A   Clear
9:55 PM 28.0 °F 20.8 °F 13.3 °F 54% 29.75 in 10.0 mi West 6.9 mph - N/A   Clear
10:15 PM 26.2 °F 20.7 °F 13.1 °F 58% 29.74 in 10.0 mi WSW 4.6 mph - N/A   Clear
10:35 PM 25.7 °F 21.5 °F 12.4 °F 57% 29.74 in 10.0 mi West 3.5 mph - N/A   Clear
10:55 PM 24.6 °F - 12.2 °F 59% 29.74 in 10.0 mi Calm Calm - N/A   Clear
11:15 PM 24.8 °F 16.1 °F 11.8 °F 58% 29.73 in 10.0 mi WNW 8.1 mph - N/A   Clear
11:35 PM 26.8 °F - 9.5 °F 48% 29.73 in 10.0 mi Calm Calm - N/A   Clear
11:55 PM 23.4 °F 18.9 °F 9.1 °F 55% 29.73 in 10.0 mi South 3.5 mph - N/A   Clear